Regional Weather Roundup
Issued by NWS San Diego, CA

Home | Current Version | Previous Version | Text Only | Print | Product List | Glossary On
Versions: 1 2 3 4 5 6 7 8 9 10 11 12 13 14 15 16 17 18 19 20 21 22 23 24 25 26 27 28 29 30 31 32 33 34 35 36 37 38 39 40 41 42 43 44 45 46 47 48 49 50
754
ASUS46 KSGX 271411
RWRSGX

SAN DIEGO HOURLY WEATHER ROUNDUP
NATIONAL WEATHER SERVICE SAN DIEGO CA
700 AM PDT SAT MAY 27 2017

NOTE: "FAIR" INDICATES FEW OR NO CLOUDS BELOW 12,000 FEET WITH NO
SIGNIFICANT WEATHER AND/OR OBSTRUCTIONS TO VISIBILITY.

CAZ042-043-060-061-PZZ750-775-271500-

GREATER SAN DIEGO AREA

CITY           SKY/WX    TMP DP  RH WIND       PRES   REMARKS
SAN DIEGO AP   PTSUNNY   63  56  78 N5        30.04R
NATIONAL CITY    N/A     62  57  82 CALM      30.03R
CHULA VISTA      N/A     62  57  83 NW2       29.95R
IMPERIAL BEACH CLOUDY    63  55  75 NW8       30.04R
BROWN FIELD    CLOUDY    61  55  81 NW5       30.03R
MIRAMAR MCAS   CLOUDY    64  53  67 N6        30.03R
MONTGOMERY FLD CLOUDY    61  53  75 N7        30.03R

$$

NORTH SAN DIEGO COUNTY

CITY           SKY/WX    TMP DP  RH WIND       PRES   REMARKS
CAMP PENDLETON CLOUDY    59  54  83 CALM      30.03R
OCEANSIDE AP   CLOUDY    60  54  80 CALM      30.02R
OCEANSIDE HBR    N/A     60  55  82 W1        30.05R
VISTA            N/A     58  54  84 CALM      30.00R
CARLSBAD       CLOUDY    60  54  80 CALM      30.02R
DEL MAR          N/A     59  55  87 CALM      30.05R
LA JOLLA SCRIP   N/A     60  57  89 NW2       30.03R
FALLBROOK        N/A     58  58  97 CALM      30.04R
ESCONDIDO        N/A     59  55  85 CALM      30.03R
SAN MARCOS       N/A     58  53  83 CALM      30.04R
POWAY            N/A     59  54  83 CALM      30.04R

$$

EAST SAN DIEGO COUNTY

CITY           SKY/WX    TMP DP  RH WIND       PRES   REMARKS
RAMONA         SUNNY     55  50  83 E3        30.03R
SANTEE LAKES     N/A     61  56  84 CALM      30.02R
LA MESA          N/A     58  55  87 CALM      29.95R
JAMUL            N/A     56  53  88 CALM      30.02R
DESCANSO N       N/A     42  39  87 NE3       29.98R
CAMPO            N/A     49  47  93 N5        30.00R

$$

ORANGE COUNTY AND THE LOS ANGELES BASIN

CITY           SKY/WX    TMP DP  RH WIND       PRES   REMARKS
JOHN WAYNE AP  PTSUNNY   62  53  72 N7        30.03R
LAGUNA BEACH     N/A     60  56  85 CALM      29.98
LAKE FOREST FR   N/A     54  49  82 CALM      29.94R
HUNTINGTON BCH   N/A     61  55  81 CALM      30.05R
LOS ALAMITOS   FAIR      61  52  72 NW5       30.03R
FULLERTON      MOSUNNY   59  53  80 CALM      30.03R
LONG BEACH     SUNNY     61  50  67 NW5       30.04R
L.A. AP        PTSUNNY   60  53  77 W10       30.03R
L.A. DOWNTOWN  CLOUDY    61  52  72 CALM      30.03R

$$

THE INLAND EMPIRE

CITY           SKY/WX    TMP DP  RH WIND       PRES   REMARKS
CORONA         CLOUDY    55  51  86 CALM      30.04R
CHINO          PTSUNNY   57  51  80 W6        30.04R
ONTARIO        PTSUNNY   58  50  75 W5        30.03R
SAN BERNARDINO PTSUNNY   59  46  63 SW6       30.03R HAZE
RIVERSIDE AP   CLOUDY    56  51  84 W5        30.03R
MORENO VALLEY    N/A     57  53  87 CALM      28.14R
MARCH ARB      CLOUDY    56  50  80 NW7       30.02R
HORSETHIEF CYN   N/A     55  47  74 NE2       30.02R
PERRIS           N/A     56  51  81 W3        30.04R
HEMET EAST       N/A     51  44  74 CALM      30.05R
FRENCH VALLEY  FAIR      57  48  72 S3        30.03R
TEMECULA         N/A     56  52  85 CALM      30.09R

$$

SAN BERNARDINO AND RIVERSIDE COUNTY MOUNTAINS

CITY           SKY/WX    TMP DP  RH WIND       PRES   REMARKS
BIG BEAR AP    SUNNY     39  19  45 CALM      30.14R
ANGELUS OAKS     N/A     48  19  31 CALM      29.89R
PINE COVE        N/A     57   3  11 N2        29.89R

$$

SOUTHERN DESERT INCLUDING THE COACHELLA VALLEY

CITY           SKY/WX    TMP DP  RH WIND       PRES   REMARKS
PALM SPRINGS   SUNNY     68  51  54 VRB6      29.90R
PALM DESERT      N/A     66  52  60 CALM      27.46S
THERMAL        SUNNY     69  47  45 NW10      29.86R
BLYTHE         SUNNY     71  46  40 CALM      29.88R
IMPERIAL AP    SUNNY     69  45  41 N6        29.87R
EL CENTRO NAS  SUNNY     63  45  51 CALM      29.89R
YUMA AZ        SUNNY     71  49  45 NE3       29.89
MEXICALI       SUNNY     70  52  52 CALM      29.88R

$$

UPPER DESERT

CITY           SKY/WX    TMP DP  RH WIND       PRES   REMARKS
VICTORVILLE AP SUNNY     52  43  71 SE9       30.02R
HESPERIA         N/A     50  44  80 CALM      30.10R
PALMDALE       SUNNY     56  46  69 SW8       30.01R
LANCASTER      SUNNY     54  45  71 W6        30.01R
EDWARDS AFB    SUNNY     52  44  75 S6        29.99R
DAGGETT        SUNNY     58  43  57 W10       29.99R
29 PALMS N     SUNNY     64  35  34 NW7       30.03R
NEEDLES        SUNNY     79  41  25 SW6       29.89R

$$

REGIONAL REPORTS

CITY           SKY/WX    TMP DP  RH WIND       PRES   REMARKS
SANTA BARBARA  SUNNY     54  51  90 N3        30.03R
SANDBERG       SUNNY     53  43  68 NW15      30.06R
LAS VEGAS NV   SUNNY     74  28  18 CALM      29.95R
PHOENIX AZ     MOSUNNY   73  27  18 E6        29.92R
TIJUANA        CLOUDY    61  52  72 W5        30.04R
ENSENADA NW      N/A     59  32  36 CALM      30.01R

$$

OFFSHORE ISLANDS

CITY           SKY/WX    TMP DP  RH WIND       PRES   REMARKS
CATALINA ARPT  CLOUDY    53  52  96 SW5       30.04R
SAN NICOLAS IS CLOUDY    53  32  44 W9        30.05R

$$

MARINE AND OFFSHORE BUOY REPORTS

STATION/POSITION SKY/WX   TEMP    WIND        PRES    VSBY  SWELL
                          AIR SEA DIR/SP/G                  HT/PER/DIR
                          (F)     (DEG/KT/KT) (MB)    (MI)  (FT/S/D)
TANNER BANKS               59 61  310/ 10/ 12 1017.3          3/310/10
S CLEMENTE BASIN           60 63  280/ 12/ 16 1016.8          3/260/11
SAN NICOLAS IS.               59                N/A           3/190/14
SO. S. ROSA ISLA           56 58  300/ 14/ 16 1016.9          3/200/15
W. S. BARBARA CH           56 56  310/ 14/ 17 1017.0R
M. S. BARBARA CH           57 57   CALM  /  2 1017.8R         2/260/10
S. MONICA BASIN            59 62  250/  6/  8 1017.1R         2/190/15
S PEDRO CHANNEL               63                N/A           2/260/11
CMP PENDLETON NS              62                N/A           2/200/13
OCEANSIDE OFFSHR              62                N/A           2/200/13
TORREY PINES OTR              63                N/A           2/210/14
SAN DIEGO BAY                 68              1017.1R
POINT LOMA SOUTH              65                N/A           3/200/14

$$





USA.gov is the U.S. government's official web portal to all federal, state and local government web resources and services.